Back to catalog

AE3VA

AliveScienceSSO
NORAD 64563·PAYLOAD·🇯🇵 Japan

Launched Jun 23, 2025 from Vandenberg Space Force Base

Loading…

Next Passes (next 24 hours)

TLE

FreshSource: Space-Track

Epoch: Sep 14, 2026, 13:19 UTC

1 64563U 25135AM  26257.55512723  .00004256  00000-0  36492-3 0  9996
2 64563  97.7766  11.9812 0002412  12.4816 347.6465 14.98057104 67312

Track AE3VA in real time with AllMySat

Download on the App Store